Location: Maiden
(35.5760°N, 81.2120°W)
Time: 10:54:57
(UTC-04:00)

Vanguard 3 - All Passes

Search period start: 04 August 2020 00:00
Search period end: 14 August 2020 00:00
Orbit: 509 x 3261 km, 33.3° (Epoch: 04 August)

Date Brightness Start Highest point End Pass type
(mag) Time Alt. Az. Time Alt. Az. Time Alt. Az.
04 Aug - 04:08:12 10° SSE 04:11:14 11° SE 04:14:09 10° SE visible
04 Aug - 06:11:08 10° SSW 06:26:16 33° SSE 06:36:55 10° E visible
04 Aug - 08:25:19 10° WSW 08:40:48 60° SSE 08:49:40 10° E daylight
04 Aug - 10:42:25 10° W 10:54:16 78° S 11:00:40 10° E daylight
04 Aug - 12:58:50 10° W 13:06:20 52° SSW 13:10:54 10° SE daylight
04 Aug - 15:16:16 10° SW 15:16:43 10° SW 15:17:10 10° SW daylight
05 Aug - 04:57:01 10° S 05:10:17 23° SE 05:20:58 10° E visible
05 Aug - 07:08:33 10° SW 07:25:15 49° SSE 07:35:46 10° E daylight
05 Aug - 09:24:59 10° WSW 09:39:29 74° S 09:47:24 10° E daylight
05 Aug - 11:42:18 10° W 11:52:27 71° S 11:58:05 10° ESE daylight
05 Aug - 13:58:23 10° W 14:03:38 26° SW 14:07:21 10° SSE daylight
06 Aug - 03:45:48 10° SSE 03:54:16 14° SE 04:01:59 10° ESE visible
06 Aug - 05:52:40 10° SSW 06:09:19 38° SSE 06:21:09 10° E visible
06 Aug - 08:07:29 10° WSW 08:24:11 66° SSE 08:33:51 10° E daylight
06 Aug - 10:25:05 10° W 10:38:01 79° S 10:44:59 10° E daylight
06 Aug - 12:41:59 10° W 12:50:14 48° SSW 12:55:09 10° SE daylight
07 Aug - 04:38:11 10° SSW 04:53:11 28° SE 05:05:24 10° E visible
07 Aug - 06:50:30 10° SW 07:08:23 55° SSE 07:19:52 10° E daylight
07 Aug - 09:07:23 10° WSW 09:23:01 78° S 09:31:38 10° E daylight
07 Aug - 11:25:08 10° W 11:36:17 69° SSW 11:42:23 10° ESE daylight
07 Aug - 13:41:52 10° W 13:47:26 24° SW 13:51:20 10° SSE daylight
08 Aug - 03:25:55 10° S 03:37:06 18° SE 03:47:23 10° ESE visible
08 Aug - 05:34:26 10° SW 05:52:13 44° SSE 06:05:13 10° E visible
08 Aug - 07:49:43 10° WSW 08:07:27 71° SSE 08:17:57 10° E daylight
08 Aug - 10:07:40 10° W 10:21:42 79° S 10:29:16 10° E daylight
08 Aug - 12:25:01 10° W 12:34:03 45° SSW 12:39:21 10° SE daylight
09 Aug - 04:19:42 10° SSW 04:35:56 33° SE 04:49:31 10° E visible
09 Aug - 06:32:35 10° SW 06:51:23 61° SSE 07:03:50 10° E daylight
09 Aug - 08:49:47 10° W 09:06:27 80° S 09:15:49 10° E daylight
09 Aug - 11:07:51 10° W 11:20:02 66° SSW 11:26:39 10° ESE daylight
09 Aug - 13:25:15 10° W 13:31:08 22° SW 13:35:15 10° S daylight
10 Aug - 03:06:52 10° S 03:19:49 22° SE 03:31:57 10° E visible
10 Aug - 05:16:25 10° SW 05:34:59 49° SSE 05:49:05 10° E visible
10 Aug - 07:31:59 10° WSW 07:50:37 75° SSE 08:02:00 10° E daylight
10 Aug - 09:50:11 10° W 10:05:16 79° S 10:13:30 10° ESE daylight
10 Aug - 12:07:57 10° W 12:17:44 42° SSW 12:23:29 10° SE daylight
11 Aug - 01:58:58 10° SSE 02:04:00 11° SE 02:09:02 10° ESE visible
11 Aug - 04:01:33 10° SSW 04:18:33 37° SE 04:33:22 10° E visible
11 Aug - 06:14:48 10° SW 06:34:16 66° SSE 06:47:43 10° E visible
11 Aug - 08:32:11 10° W 08:49:48 82° S 08:59:56 10° E daylight
11 Aug - 10:50:29 10° W 11:03:39 64° SSW 11:10:52 10° ESE daylight
11 Aug - 13:08:35 10° W 13:14:44 20° SW 13:19:05 10° S daylight
12 Aug - 02:48:23 10° S 03:02:23 26° SE 03:16:03 10° E visible
12 Aug - 04:58:36 10° SW 05:17:38 54° SSE 05:32:49 10° E visible
12 Aug - 07:14:21 10° WSW 07:33:40 78° S 07:45:58 10° E daylight
12 Aug - 09:32:38 10° W 09:48:44 77° S 09:57:40 10° ESE daylight
12 Aug - 11:50:46 10° W 12:01:19 40° SW 12:07:33 10° SSE daylight
13 Aug - 01:38:27 10° SSE 01:46:39 14° SE 01:55:08 10° ESE visible
13 Aug - 03:43:40 10° SSW 04:01:03 42° SE 04:17:01 10° E visible
13 Aug - 05:57:10 10° WSW 06:17:03 70° SSE 06:31:30 10° E visible
13 Aug - 08:14:36 10° W 08:33:02 82° S 08:44:00 10° E daylight
13 Aug - 10:33:02 10° W 10:47:09 61° SSW 10:55:00 10° SE daylight
13 Aug - 12:51:52 10° W 12:58:13 19° SW 13:02:47 10° S daylight
